EHI
3 2 1 0 0 0 0 0 0 0 0 0 0 0 0 0 0 0 0 0 0 0 0 0 0 0 0 0 0 0 0 0 0 0 0 0 0 0 0 0 0 0 0
3 3 2 0 0 0 0 0 0 0 0 0 0 0 0 0 0 0 0 0 0 0 0 0 0 0 0 0 0 0 0 0 0 0 0 0 0 0 0 0 0 0 0
3 3 2 1 0 0 0 0 0 0 0 0 0 0 0 0 0 0 0 0 0 0 0 0 0 0 0 0 0 0 0 0 0 0 0 0 0 0 0 0 0 0 0
2 1 1 0 0 0 0 0 0 0 0 0 0 0 0 0 0 0 0 0 0 0 0 1 0 0 0 0 0 0 0 0 0 0 0 0 0 0 0 0 0 0 0
1 0 0 0 0 0 0 0 0 0 0 0 0 0 0 0 0 0 0 0 0 0 0 1 1 0 0 0 0 0 0 1 1 1 0 0 0 0 0 0 0 0 0
0 0 0 0 0 0 0 0 0 0 0 0 0 0 0 0 0 0 0 0 0 0 0 1 2 2 1 0 0 0 1 1 2 2 1 1 1 0 0 0 0 0 0
0 0 0 0 0 0 0 0 0 0 0 0 0 0 0 0 0 0 0 0 0 0 0 1 2 2 2 1 0 0 1 2 3 4 3 2 1 0 0 0 0 0 0
0 0 0 0 0 0 0 0 0 0 0 0 0 0 0 0 0 0 0 0 0 0 0 0 1 1 1 0 0 0 2 3 3 4 4 3 1 0 0 1 1 0 0
0 0 0 0 0 0 0 0 0 0 0 0 0 0 0 0 0 0 0 0 0 1 0 0 0 0 0 0 1 1 1 2 2 3 3 3 1 0 0 1 1 0 0
1 0 0 0 0 0 0 0 0 0 0 1 1 1 0 0 0 0 0 0 0 0 0 0 1 0 0 2 3 1 1 1 0 1 1 2 2 1 1 1 1 0 0
2 1 0 1 0 0 0 1 1 1 1 2 2 3 1 0 1 1 1 0 0 0 0 1 1 1 1 3 3 1 0 0 0 0 0 1 1 1 1 2 1 1 1
3 2 2 4 3 2 2 2 2 2 3 4 5 5 4 3 4 3 2 0 0 0 1 1 1 2 3 3 3 1 0 0 0 0 0 0 0 1 2 2 2 2 2
3 2 3 5 6 5 3 3 3 3 4 6 6 6 6 6 7 6 3 1 0 1 1 0 1 1 3 4 3 1 0 0 0 0 0 0 0 1 1 1 1 1 1
1 2 2 2 4 4 4 3 3 3 4 5 5 5 6 7 8 7 5 3 1 1 0 0 1 1 3 4 3 2 1 0 0 0 0 0 0 0 0 0 0 0 0
2 2 2 1 2 3 4 4 3 3 4 5 5 5 5 7 8 8 7 6 3 1 0 1 2 2 2 2 2 2 2 1 0 0 0 0 0 0 0 0 0 0 0
4 4 4 4 4 6 7 7 5 4 5 5 5 4 4 6 8 7 6 6 5 3 1 1 2 2 1 0 1 1 1 1 0 0 0 0 0 0 0 0 0 0 0
6 5 4 5 7 8 9 9 7 5 5 4 3 2 2 3 5 5 4 5 6 4 2 1 1 2 2 1 1 1 1 1 0 0 0 0 0 0 0 0 0 0 0
6 5 4 4 6 7 9 10 9 6 5 5 3 1 0 1 3 4 3 4 6 5 3 2 2 3 2 1 1 1 0 0 0 0 0 0 0 0 0 0 0 0 0
7 5 4 3 4 5 7 9 9 8 7 6 5 3 2 2 3 3 3 3 4 4 3 3 3 4 2 0 0 0 0 0 0 0 0 0 0 0 0 0 0 0 0
5 4 3 3 3 4 5 7 8 10 10 8 6 5 4 3 3 2 2 2 2 3 3 3 4 4 1 0 0 0 0 0 0 0 0 0 0 0 0 0 0 0 0
2 2 2 3 3 3 3 4 6 8 8 6 5 5 4 3 2 1 1 0 1 2 3 3 4 3 1 0 0 0 0 0 0 0 0 0 0 0 0 0 0 0 0
5 4 4 4 4 3 2 1 2 4 4 5 5 5 4 3 2 1 0 0 0 1 2 3 3 3 2 2 2 2 1 0 0 0 0 0 0 0 0 0 0 0 0
9 7 6 5 4 3 2 0 0 1 3 4 5 4 3 3 3 2 1 1 0 0 1 1 2 3 4 5 4 3 1 1 1 0 0 0 0 0 0 0 0 0 0
8 6 4 4 4 3 1 0 0 1 3 4 4 4 3 3 3 3 3 2 1 1 0 1 2 2 3 5 4 3 2 2 2 2 2 1 0 0 0 0 0 0 0
5 4 3 2 2 2 1 0 0 2 5 5 4 3 3 3 3 3 3 3 3 2 1 0 1 1 1 2 1 1 2 3 3 2 3 2 1 1 1 0 1 1 0
6 5 4 2 1 1 1 1 0 2 5 6 5 4 3 3 3 2 3 3 3 3 2 1 0 0 0 0 0 0 1 2 2 2 3 3 2 2 2 1 2 2 1
Wind_Speed
3 3 2 1 2 3 4 3 2 3 3 3 2 3 2 2 2 2 6 8 6 6 6 7 8 8 7 7 7 7 7 7 7 6 6 6 6 6 6 6 6 5 5
3 3 3 2 2 2 2 2 3 3 2 2 2 2 2 3 3 2 4 8 8 6 6 7 7 8 8 8 8 8 8 8 7 7 7 7 6 7 7 7 7 6 6
3 3 3 3 2 2 2 2 2 2 2 3 2 2 2 2 2 3 3 3 7 9 8 7 7 8 8 8 9 9 9 9 8 8 8 8 8 7 7 7 7 7 7
4 3 3 2 2 2 2 2 3 2 2 2 2 2 2 2 3 4 4 4 3 5 9 10 8 9 9 9 10 10 10 10 10 10 10 9 9 9 8 8 8 8 8
5 4 3 2 3 2 3 3 3 2 2 2 3 3 3 3 4 4 4 4 4 4 4 9 10 9 10 10 10 10 10 10 11 11 11 11 10 10 10 10 9 9 9
5 4 4 4 4 3 3 2 2 2 2 3 3 2 3 3 3 4 5 5 4 5 5 5 7 9 12 11 11 11 11 11 11 12 12 12 11 10 10 10 10 10 10
5 4 4 3 4 3 3 4 4 4 4 3 3 3 3 4 4 4 4 4 5 5 5 5 5 4 6 12 12 11 11 11 11 11 11 11 11 11 10 10 10 10 10
6 5 5 4 4 3 5 5 5 4 3 3 3 3 3 3 4 4 4 5 4 4 5 6 5 5 5 4 7 12 11 11 11 11 11 11 11 10 10 10 10 10 10
6 5 5 5 4 5 5 5 5 6 4 4 4 3 3 2 1 3 3 3 3 3 4 3 5 5 6 5 4 8 10 9 10 10 10 10 10 10 10 10 10 10 10
6 6 6 5 5 5 4 6 6 5 5 5 4 4 5 3 3 2 3 3 3 3 3 3 3 3 4 4 2 2 5 6 7 8 8 8 8 9 10 11 11 10 9
5 5 5 5 6 6 5 5 4 6 5 5 4 4 4 4 6 4 3 2 2 2 2 2 2 2 2 2 2 1 4 4 4 5 5 5 5 5 5 6 7 8 8
4 5 5 5 6 5 5 5 5 7 6 6 5 4 4 4 4 4 4 4 3 2 1 1 1 1 1 1 1 5 5 3 3 2 2 2 3 3 3 3 3 4 5
3 4 4 4 5 5 5 4 5 5 5 6 5 4 4 4 4 3 4 4 3 2 2 2 2 1 1 0 2 6 5 5 4 4 3 3 2 2 2 1 1 1 2
3 3 4 4 4 4 4 4 4 4 3 4 5 4 4 4 3 4 4 4 4 3 3 2 1 1 0 1 4 4 4 7 6 5 4 4 4 4 3 3 2 1 1
3 3 3 4 3 3 3 3 2 3 3 4 4 4 4 3 3 4 4 4 4 4 3 1 1 1 1 2 3 3 3 8 8 7 6 6 6 6 6 5 4 3 2
2 2 3 3 2 2 2 2 2 3 3 3 2 3 3 3 2 3 3 3 4 4 3 0 1 1 2 2 5 4 5 10 9 8 8 8 8 7 7 7 6 6 4
1 2 2 2 2 2 1 1 2 2 2 2 2 2 3 3 2 2 2 3 2 2 3 1 1 1 3 2 3 3 4 4 5 9 9 9 8 8 8 8 8 8 7
1 1 1 1 1 1 1 1 1 1 1 1 1 2 2 2 2 2 2 2 2 2 2 2 1 1 2 3 3 3 3 3 4 9 9 9 9 9 9 9 9 9 8
0 1 1 1 1 1 1 1 1 1 0 0 0 1 1 1 2 1 2 2 1 1 1 2 2 2 2 3 3 3 4 3 4 6 8 8 9 9 9 9 9 8 8
1 1 1 1 1 1 1 1 1 1 0 0 0 1 1 1 1 1 1 1 1 1 2 2 3 3 3 3 3 4 4 3 3 3 5 6 8 9 9 8 8 8 7
1 1 1 1 1 1 1 0 1 1 1 1 1 1 3 4 5 3 2 1 0 1 2 3 3 3 3 3 3 3 3 4 3 2 3 3 4 4 5 6 6 6 6
2 2 1 1 1 2 4 3 1 1 1 1 1 2 3 3 4 5 5 5 4 1 1 2 3 3 3 3 3 3 3 3 3 2 2 2 2 2 2 3 5 6 5
3 3 2 2 2 4 4 3 2 1 2 2 2 1 1 3 2 3 4 4 4 4 2 1 1 1 2 2 3 4 3 2 1 2 2 2 1 2 2 4 6 5 5
2 2 2 3 3 4 4 3 1 2 3 3 3 2 2 2 2 1 2 3 3 3 2 1 1 1 1 1 2 3 4 4 3 2 1 1 1 1 2 3 7 6 5
2 2 2 3 3 4 4 2 2 2 3 3 3 3 2 2 3 2 1 3 3 4 6 6 6 5 5 3 1 2 3 3 2 2 1 1 1 1 2 3 6 8 6
3 2 3 3 3 3 3 2 4 1 3 3 3 4 6 4 3 2 1 2 3 3 3 5 4 4 4 4 2 0 1 2 1 2 2 2 1 2 2 2 3 5 6
Wind_Direction
153 142 133 143 150 135 150 148 134 129 140 144 144 131 124 103 120 142 126 147 164 174 176 176 176 176 178 179 181 182 184 184 183 182 181 182 182 183 184 188 188 189 189
155 166 161 167 160 164 126 155 149 163 162 132 147 136 160 158 148 176 153 152 169 180 184 185 185 187 189 190 190 192 195 195 193 195 198 198 199 200 203 203 202 204 205
169 192 172 181 168 163 155 191 171 184 186 174 164 162 173 189 163 184 190 173 167 177 189 194 197 198 198 200 201 202 204 205 205 206 208 209 209 210 213 213 211 212 214
195 211 197 181 174 193 190 187 208 204 187 195 183 197 182 185 193 201 203 197 196 179 180 191 203 208 210 212 212 211 211 213 214 215 216 215 214 216 220 221 219 219 219
202 213 208 181 207 203 211 220 186 213 197 202 199 193 206 208 198 205 208 209 201 210 198 172 194 210 217 221 222 219 218 218 217 218 221 221 220 221 225 225 224 225 225
208 216 206 197 224 212 219 226 225 221 230 224 234 200 219 215 215 209 217 208 203 211 217 202 193 198 210 221 227 227 225 223 221 220 222 224 225 226 226 226 227 228 229
212 222 231 190 229 222 228 224 220 209 221 218 229 221 216 215 217 217 225 230 212 212 218 219 228 219 195 205 218 226 229 229 224 220 219 221 224 225 225 227 228 229 231
215 212 220 222 216 228 226 229 228 240 230 213 238 245 231 201 206 214 210 214 226 219 220 220 223 224 243 213 188 205 219 226 228 224 221 222 223 223 222 224 224 224 227
219 228 218 232 227 234 227 229 227 229 236 228 233 253 262 241 195 191 203 212 216 232 238 240 232 224 228 234 212 192 205 218 228 233 226 220 217 218 221 223 224 225 226
224 218 225 228 236 242 237 237 227 234 238 242 227 238 262 297 270 244 211 192 196 216 238 251 243 224 228 234 215 172 185 209 227 233 232 228 223 221 223 225 227 225 222
221 223 227 231 231 239 239 246 239 239 237 244 241 235 236 235 243 254 258 245 223 216 213 234 255 261 252 240 237 165 150 185 211 222 233 233 227 221 218 218 222 223 219
220 222 228 230 232 235 239 241 238 232 243 251 251 245 242 241 239 243 257 252 240 227 209 259 255 259 265 251 139 98 114 129 148 161 174 190 197 188 180 193 217 222 223
226 224 237 232 232 230 235 241 237 244 241 244 245 244 246 251 259 250 254 261 259 237 202 224 228 229 244 133 97 104 110 113 108 109 115 121 127 120 126 138 177 208 228
245 241 232 230 230 232 237 235 243 241 244 242 247 254 257 257 260 249 250 256 257 247 221 219 192 167 132 103 91 110 107 106 103 101 102 101 97 94 90 92 102 130 205
241 234 238 233 228 233 244 242 242 247 243 242 243 240 250 254 257 262 255 248 255 261 252 200 174 130 134 110 102 104 95 94 99 95 92 91 90 90 90 89 91 92 95
256 248 245 235 228 223 226 233 229 227 229 238 248 258 258 261 264 262 265 259 254 260 263 250 123 143 126 122 108 112 102 96 87 89 89 88 88 86 85 83 84 86 91
247 243 246 236 220 216 221 230 239 230 231 236 245 239 247 270 271 261 259 262 258 248 241 248 64 104 121 122 115 116 115 112 101 94 93 91 89 87 85 82 77 74 76
235 215 216 198 208 187 193 212 248 239 244 247 258 259 263 259 256 274 267 257 253 241 221 196 169 153 134 131 122 121 111 103 96 98 95 91 90 89 87 84 81 78 76
131 165 179 174 165 185 175 177 197 211 229 293 281 269 276 278 273 284 277 263 237 205 185 176 171 144 129 127 126 118 105 103 103 111 109 101 96 93 90 87 86 82 79
95 105 148 137 159 175 160 153 160 165 166 72 9 327 320 316 298 267 239 246 233 176 156 163 154 150 139 143 155 146 137 129 117 114 104 110 114 109 100 94 90 87 84
129 124 118 137 158 156 64 23 157 152 160 138 104 75 62 59 43 23 10 18 228 195 157 156 156 153 154 163 177 166 145 131 119 127 129 130 132 123 122 118 104 94 92
124 116 103 96 91 65 54 24 342 138 146 145 129 116 120 109 100 85 62 51 37 38 158 170 170 166 167 178 171 164 158 160 149 145 147 123 124 121 121 110 106 110 111
117 107 98 89 87 78 67 49 7 114 107 85 90 90 85 87 112 116 125 130 86 51 23 310 130 181 176 176 177 170 163 164 116 131 172 141 141 139 135 114 127 135 134
115 103 94 85 84 81 70 53 351 132 103 96 87 85 84 79 54 41 110 106 97 76 47 69 68 61 92 131 178 173 164 157 138 132 183 197 160 165 148 137 148 160 167
123 116 104 98 95 89 66 26 319 127 115 102 85 64 60 83 35 330 141 124 113 109 88 73 64 74 75 76 38 177 171 179 164 143 146 248 181 179 183 179 162 174 181
137 130 105 96 97 97 78 18 317 134 114 109 101 93 64 47 34 353 152 129 120 103 110 116 108 118 115 113 119 174 200 197 181 158 136 244 205 209 203 189 180 176 186